Regional Weather Roundup
Issued by NWS

Home | Current Version | Previous Version | Graphics & Text | Print | Product List | Glossary On
Versions: 1 2 3 4 5 6 7 8 9 10 11 12 13 14 15 16 17 18 19 20 21 22 23 24 25 26 27 28 29 30 31 32 33 34 35 36 37 38 39 40 41 42 43 44 45 46 47 48 49 50
000
ASUS45 KCYS 240210
RWRWY

WYOMING REGIONAL WEATHER ROUNDUP
NATIONAL WEATHER SERVICE CHEYENNE WY
700 PM MST SUN NOV 23 2014

NOTE:  "FAIR" INDICATES FEW OR NO CLOUDS BELOW 12,000 FEET
WITH NO SIGNIFICANT WEATHER AND/OR OBSTRUCTIONS TO VISIBILITY.

WYZ001-240300-
YELLOWSTONE NATIONAL PARK

CITY           SKY/WX    TMP DP  RH WIND       PRES   REMARKS
LK YELLOWSTONE   N/A     20  13  74 W8G18     29.96F WCI  10
W YELLOWSTONE  NOT AVBL

$$
WYZ002>013-054>058-071-098>099-240300-
NORTHERN WYOMING

CITY           SKY/WX    TMP DP  RH WIND       PRES   REMARKS
JACKSON        BLWGSNOW  25  25 100 S12G26    30.04R VSB 1   WCI  14
CODY           PTCLDY    36  12  38 W6        29.88S WCI  31
GREYBULL       CLEAR     27  16  63 SE3       29.90R
WORLAND        CLEAR     23  16  74 S10       29.90F WCI  12
SHERIDAN       CLOUDY    35  14  42 W12       29.85S WCI  27
BUFFALO        CLEAR     33   7  33 NW22G28   29.83S WCI  21
GILLETTE       NOT AVBL
HULETT           N/A    N/A N/A N/A MISG        N/A
NEWCASTLE      FAIR      30  23  74 NW14      29.78S WCI  20

$$
WYZ014>020-022>026-101>103-240300-
CENTRAL WYOMING

CITY           SKY/WX    TMP DP  RH WIND       PRES   REMARKS
BIG PINEY      PTCLDY    25  10  53 VRB3      30.03R
PINEDALE       PTCLDY    14  10  85 CALM      30.03R
DUBOIS         FAIR      21  12  68 N8        29.94R WCI  12
LANDER         NOT AVBL
RIVERTON       CLEAR     29  12  49 NW25G35   29.91F WCI  14
CASPER         CLEAR     25  16  68 W6        29.89S WCI  18
DOUGLAS        CLEAR    N/A N/A N/A NW9       29.86F

$$
WYZ021-027>030-104>119-240300-
SOUTHERN WYOMING

CITY           SKY/WX    TMP DP  RH WIND       PRES   REMARKS
EVANSTON       CLOUDY    23  18  81 SW16G22   30.13F WCI  10
FORT BRIDGER   MOCLDY    23  17  76 W12G23    30.14S WCI  12
ROCK SPRINGS   CLEAR     22  12  65 W24G36    30.04R WCI   5
DIXON          FAIR      13   6  73 E3        30.03R
RAWLINS        CLEAR     22  11  62 W20       29.92F WCI   7
SARATOGA       FAIR      19  12  73 SW9       29.94S WCI   9
LARAMIE        MOCLDY    18  12  77 NW9       29.86R WCI   7
CHEYENNE       PTCLDY    24  14  65 NW10      29.85S WCI  14
TORRINGTON     PTCLDY    28  23  81 W3        29.85R
PINE BLUFFS    FAIR      27  18  69 W12       29.86S WCI  16

$$


USA.gov is the U.S. government's official web portal to all federal, state and local government web resources and services.